Location: *
(58.4167°N, 22.5000°E)
Time: 13:03:11
(UTC+00:00)

Mayak - Pass Details

Date: 22 September 2019
Orbit: 581 x 602 km, 97.6° (Epoch: 17 October)

Event Time Altitude Azimuth Distance (km) Brightness Sun altitude
Rises 20:40:00 0° 19° (NNE) 2,820 2.8 -28.0°
Reaches altitude 10° 20:42:20 10° 29° (NNE) 1,915 1.7 -28.1°
Enters shadow 20:43:36 18° 39° (NE) 1,462 1.0 -28.2°
